TimeEDT,TemperatureF,Dew PointF,Humidity,Sea Level PressureIn,VisibilityMPH,Wind Direction,Wind SpeedMPH,Gust SpeedMPH,PrecipitationIn,Events,Conditions,WindDirDegrees,DateUTC
12:25 AM,75.2,71.6,89,30.03,10.0,Variable,4.6,-,N/A,,Overcast,0,2013-07-02 04:25:00
12:38 AM,75.2,71.6,89,30.03,10.0,SSE,4.6,-,N/A,,Overcast,150,2013-07-02 04:38:00
12:53 AM,75.0,72.0,90,30.03,10.0,SE,4.6,-,N/A,,Overcast,140,2013-07-02 04:53:00
1:53 AM,73.9,72.0,93,30.02,10.0,Calm,Calm,-,N/A,,Overcast,0,2013-07-02 05:53:00
2:53 AM,75.0,72.0,90,30.03,10.0,SSE,4.6,-,N/A,,Overcast,160,2013-07-02 06:53:00
3:22 AM,75.2,71.6,89,30.02,10.0,SSE,4.6,-,0.00,,Overcast,160,2013-07-02 07:22:00
3:53 AM,73.9,72.0,93,30.03,10.0,SSE,4.6,-,0.00,,Overcast,160,2013-07-02 07:53:00
4:41 AM,73.4,71.6,94,30.04,10.0,SSE,4.6,-,0.00,Rain,Light Rain,150,2013-07-02 08:41:00
4:53 AM,73.9,72.0,93,30.04,10.0,Variable,3.5,-,0.00,Rain,Light Rain,0,2013-07-02 08:53:00
5:53 AM,73.9,72.0,93,30.05,8.0,Calm,Calm,-,0.00,,Overcast,0,2013-07-02 09:53:00
6:03 AM,73.4,71.6,94,30.06,7.0,Calm,Calm,-,N/A,,Overcast,0,2013-07-02 10:03:00
6:44 AM,73.4,71.6,94,30.07,9.0,SE,3.5,-,N/A,,Overcast,140,2013-07-02 10:44:00
6:53 AM,73.9,72.0,93,30.06,10.0,Calm,Calm,-,N/A,,Mostly Cloudy,0,2013-07-02 10:53:00
7:07 AM,75.2,73.4,94,30.08,10.0,South,3.5,-,N/A,,Mostly Cloudy,180,2013-07-02 11:07:00
7:53 AM,75.0,72.0,90,30.08,10.0,SSE,3.5,-,N/A,,Overcast,160,2013-07-02 11:53:00
8:10 AM,75.2,73.4,94,30.09,10.0,SSE,3.5,-,N/A,,Overcast,160,2013-07-02 12:10:00
8:53 AM,75.9,73.0,91,30.10,10.0,Variable,5.8,-,0.00,,Overcast,0,2013-07-02 12:53:00
9:14 AM,77.0,73.4,89,30.10,10.0,SSE,4.6,-,N/A,,Overcast,160,2013-07-02 13:14:00
10:12 AM,78.8,73.4,83,30.10,10.0,South,5.8,-,N/A,,Mostly Cloudy,170,2013-07-02 14:12:00
10:53 AM,79.0,73.0,82,30.10,10.0,South,8.1,-,N/A,,Mostly Cloudy,170,2013-07-02 14:53:00
11:40 AM,78.8,73.4,83,30.11,10.0,South,10.4,-,N/A,,Mostly Cloudy,170,2013-07-02 15:40:00
11:53 AM,79.0,73.0,82,30.11,10.0,South,10.4,-,N/A,,Mostly Cloudy,180,2013-07-02 15:53:00
12:04 PM,78.8,73.4,83,30.11,10.0,South,8.1,-,N/A,,Mostly Cloudy,170,2013-07-02 16:04:00
12:46 PM,80.6,73.4,79,30.11,10.0,South,8.1,-,0.00,,Mostly Cloudy,170,2013-07-02 16:46:00
12:53 PM,80.1,73.0,79,30.10,10.0,South,5.8,-,0.00,,Mostly Cloudy,180,2013-07-02 16:53:00
1:42 PM,82.4,73.4,74,30.10,10.0,South,8.1,-,N/A,,Mostly Cloudy,170,2013-07-02 17:42:00
1:53 PM,82.9,73.9,74,30.09,10.0,South,10.4,-,N/A,,Mostly Cloudy,180,2013-07-02 17:53:00
2:09 PM,82.4,73.4,74,30.09,10.0,South,6.9,-,N/A,,Mostly Cloudy,190,2013-07-02 18:09:00
2:21 PM,82.4,73.4,74,30.09,10.0,South,5.8,-,N/A,,Overcast,180,2013-07-02 18:21:00
2:40 PM,78.8,73.4,83,30.09,2.0,Calm,Calm,-,0.00,Rain,Light Rain,0,2013-07-02 18:40:00
2:49 PM,78.8,75.2,89,30.09,4.0,Calm,Calm,-,0.00,Rain,Light Rain,0,2013-07-02 18:49:00
2:53 PM,78.1,75.0,90,30.09,4.0,South,5.8,-,0.00,Rain,Light Rain,180,2013-07-02 18:53:00
3:53 PM,82.9,73.9,74,30.08,10.0,SSW,3.5,-,0.00,,Scattered Clouds,200,2013-07-02 19:53:00
4:53 PM,84.0,73.0,69,30.08,10.0,Variable,5.8,-,N/A,,Scattered Clouds,0,2013-07-02 20:53:00
5:53 PM,82.0,73.0,74,30.09,10.0,South,6.9,-,N/A,,Clear,190,2013-07-02 21:53:00
6:53 PM,81.0,73.9,79,30.11,10.0,South,3.5,-,0.00,Rain,Light Rain,180,2013-07-02 22:53:00
7:53 PM,80.1,71.1,74,30.12,10.0,South,6.9,-,0.00,,Mostly Cloudy,190,2013-07-02 23:53:00
8:53 PM,77.0,72.0,84,30.14,10.0,South,5.8,-,N/A,,Partly Cloudy,170,2013-07-03 00:53:00
9:53 PM,75.9,70.0,82,30.16,10.0,South,4.6,-,N/A,,Clear,180,2013-07-03 01:53:00
10:53 PM,75.0,70.0,84,30.17,10.0,South,4.6,-,N/A,,Partly Cloudy,190,2013-07-03 02:53:00
11:53 PM,73.9,70.0,87,30.16,10.0,Calm,Calm,-,N/A,,Overcast,0,2013-07-03 03:53:00